Volver al catálogo

BREEZE-M DEB

LostHEO
NORAD 38635·DEBRIS·🇷🇺 Russia

Lanzado Mar 14, 2008 desde Baikonur Cosmodrome

Loading…

Próximos Pases (próximas 24 horas)

TLE

ObsoletoSource: Space-Track

Época: Feb 29, 2016, 06:52 UTC

1 38635U 08011CJ  16060.28620741  .00003757  00000-0  14457+0 0  9990
2 38635  48.7782 222.0968 6366002 182.1778  73.2633  3.07351425 54833

Sigue BREEZE-M DEB en tiempo real con AllMySat

Download on the App Store